COSMOS 1275 DEB, 42125

Orbit data source: Space-Track

COSMOS 1275 DEB, 42125 is space debris in LEO originally from a launch on Thu, 04 Jun 1981 UTC launched from the Plesetsk Missile And Space Complex (PKMTR). Debris objects in space refer to the collection of defunct objects orbiting the Earth. Examples of debris include non-operational satellites, rocket bodies, and fragments generated from explosions, collisions, or faulty payload assembly.

Loading next visibility...
Identifier
42125, 1981-053QM
Orbit
LEO
Country
Flag of CISCIS
Related business
Manufacturer
Unknown
Mission
Spacecraft
Bus & Motor
Unknown
Mass
Unknown
Launch date (UTC)
1981-06-04 (45 years ago)
Launch vehicle
Unknown
Launch site
Plesetsk Missile And Space Complex (PKMTR)
Object type
Payload
Rocket body
Debris
Shape & HBR
Unknown shape, 0.1 m
Radar Cross Section
Small (<0.1 m²)

Expand to show TLE details & history
Last TLE update: 2 weeks ago

TLE from 2 weeks ago
0 COSMOS 1275 DEB
1 42125U 81053QM  26160.10773218  .00001722  00000-0  96399-3 0  9996
2 42125  82.9354 305.4767 0053320 174.4058 185.7725 14.09488962596232
Epoch: 2026-06-09T02:35Z
TLE epoch observation values (Epoch: 2026-06-09T02:35:08.060Z)
Latitude
-0.00002°
Longitude
9.20814°
Altitude
902.483 km
Speed
7.381 km/s
True Right ascension
20h 21m 54s
True Declination
0° 00' 00"
Sunlit
Object was in full shadow at epoch
Visualization orbit readout
Latitude
Unknown
Longitude
Unknown
Altitude
Unknown
Speed
Unknown
Apparent Right ascension
Unknown
Apparent Declination
Unknown
Sunlit
N/A
Visualization observer readout
Local Sidereal Time
21:57:13
Azimuth
Unknown
Elevation
Unknown
Doppler factor
Unknown
Orbital elements
Apogee altitude
896.807 km
Perigee altitude
819.638 km
Semi-major axis
7,236.359 km
Eccentricity
0.00533
Inclination
82.9354°
RAAN
305.4767°
Arg. of periapsis
174.4058°
True anomaly
185.71145°
Mean anomaly
185.7725°
Eccentric anomaly
185.74194°
Mean motion
3.52584 °/min
Orbital period
102.1 mins
BSTAR
0.00096399
Loading maneuver chart data...
Computing Atmospheric mass density...

Documentation

Showing up to 5 results
|